[[{"header":{"parameterUnit":"m.s-1","parameterCategory":1,"la1":30.2991,"la2":30.254,"lo1":-89.0895,"lo2":-89.0444,"dy":0.0017,"dx":0.0017,"nx":28,"ny":28,"refTime":"2025-08-31T21:00:00:Z","depth":0,"parameterNumber":2,"parameterNumberName":"U-component_of_WINDS"},"data":[0,0,0,0,0,0,0,0,0,0,0,0,0,0,0,0,0,0,0,0,0,0,0,0,0,0,0,0,0,0,0,0,0,0,0,0,0,0,0,0,0,0,0,0,0,0,0,0,0,0,0,0,0,0,0,0,0,0,-2.9328,-2.9327,0,-2.9276,-2.9275,-2.9274,-2.9182,-2.918,-2.9178,-2.9177,-2.9125,-2.9125,-2.9125,0,0,0,0,0,0,0,0,0,0,0,0,0,-2.935,-2.935,-2.9328,-2.9327,-2.9326,-2.9276,-2.9275,-2.9274,-2.9182,-2.918,-2.9178,-2.9176,-2.9125,-2.9125,-2.9125,0,0,0,0,0,0,0,0,0,0,0,0,0,-2.9324,-2.935,-2.9328,-2.9274,-2.9269,-2.9276,-2.9275,-2.9274,-2.9183,-2.918,-2.9177,-2.9175,-2.9125,-2.9125,-2.9125,-2.918,0,0,-2.9126,-2.9127,0,0,0,0,0,0,0,0,-2.9325,-2.9323,-2.9283,-2.9278,-2.9272,-2.9232,-2.9264,-2.9243,-2.9183,-2.9215,-2.9177,-2.9174,-2.9163,-2.916,-2.9156,-2.9178,-2.9176,-2.9126,-2.9127,-2.9127,-2.9127,0,0,0,0,0,0,0,-2.9327,-2.9325,-2.9307,-2.9282,-2.9276,-2.9254,-2.9247,-2.9259,-2.9205,-2.9212,-2.9206,-2.9201,-2.9159,-2.9156,-2.9154,-2.9175,-2.9126,-2.9127,-2.9127,-2.9127,-2.9243,-2.9246,0,0,0,0,0,0,-2.9337,-2.9327,-2.9309,-2.9305,-2.9293,-2.9256,-2.9248,-2.9248,-2.9204,-2.9195,-2.9203,-2.9197,-2.9156,-2.9154,-2.9152,-2.9215,-2.9127,-2.9127,-2.9127,-2.924,-2.9243,-2.9247,0,0,0,0,0,0,-2.9337,-2.9336,-2.9311,-2.9314,-2.9309,-2.9258,-2.9259,-2.9248,-2.9244,-2.9197,-2.9187,-2.9209,-2.9154,-2.9151,-2.9175,-2.9212,-2.9127,-2.9128,-2.9237,-2.9241,-2.9245,-2.9342,0,0,0,0,0,0,-2.9338,-2.9337,-2.9356,-2.9315,-2.931,-2.9334,-2.9261,-2.9249,-2.9245,-2.9236,-2.92,-2.9192,-2.9152,-2.9175,-2.9175,-2.9211,-2.9128,-2.9233,-2.9239,-2.9244,-2.9336,-2.9349,-2.9361,0,0,0,0,0,-2.9339,-2.9385,-2.9358,-2.9356,-2.9333,-2.9336,-2.9333,-2.9286,-2.9249,-2.9269,-2.9239,-2.9193,-2.9208,-2.9178,-2.9177,-2.9215,-2.923,-2.9237,-2.9243,-2.933,-2.9347,-2.9361,0,0,0,0,0,0,-2.9432,-2.9379,-2.9348,-2.9382,-2.9364,-2.9321,-2.9344,-2.9305,-2.9298,-2.929,-2.9232,-2.9225,-2.9256,-2.9237,-2.9204,-2.9267,-2.9212,-2.9219,-2.9278,-2.9294,-2.9307,-2.9311,-2.9128,0,0,0,0,0,-2.9456,-2.9463,-2.9416,-2.9451,-2.9444,-2.9396,-2.9395,-2.9361,-2.9341,-2.9333,-2.9304,-2.9287,-2.9288,-2.929,-2.9288,-2.9332,-2.9324,-2.9358,-2.9371,-2.9382,-2.9388,-2.9413,-2.9428,-2.9268,-2.9267,-2.9267,0,0,-2.9507,-2.9479,-2.9486,-2.9469,-2.9451,-2.946,-2.939,-2.9402,-2.9409,-2.9334,-2.9355,-2.9334,-2.9311,-2.9346,-2.936,-2.9331,-2.9431,-2.939,-2.9399,-2.94,-2.9421,-2.9437,-2.945,-2.9272,-2.9271,-2.927,0,0,-2.9603,-2.9582,-2.9609,-2.9594,-2.9568,-2.9536,-2.9543,-2.9506,-2.9489,-2.9509,-2.9454,-2.9462,-2.9464,-2.9451,-2.9444,-2.9539,-2.9497,-2.954,-2.9607,-2.9632,-2.9645,-2.9656,-2.9692,-2.9705,-2.9546,-2.9547,-2.9547,0,-2.9669,-2.968,-2.9629,-2.9645,-2.964,-2.9573,-2.9602,-2.9589,-2.9565,-2.9563,-2.9531,-2.9535,-2.9514,-2.9547,-2.957,-2.9566,-2.9574,-2.9544,-2.9647,-2.9658,-2.9667,-2.9701,-2.9714,-2.9552,-2.9552,-2.9551,-2.9551,0,-2.9763,-2.9772,-2.9797,-2.9776,-2.9774,-2.9796,-2.9749,-2.9753,-2.972,-2.9692,-2.9715,-2.9688,-2.9681,-2.9686,-2.9652,-2.9714,-2.9698,-2.9657,-2.9601,-2.9689,-2.972,-2.9732,-2.956,-2.9558,-2.9556,-2.9555,0,0,-2.9916,-2.9867,-2.9878,-2.9868,-2.9836,-2.9842,-2.9863,-2.9856,-2.9861,-2.9847,-2.9864,-2.9869,-2.9832,-2.9825,-2.979,-2.9812,-2.9891,-2.9769,-2.9768,-2.9794,-2.9961,-2.9992,-3.0008,-2.9864,-2.9866,-2.9867,-2.9963,0,-3.0007,-3.0038,-2.9994,-3.0036,-3.0044,-2.9983,-3.0001,-2.9984,-2.9959,-2.9964,-2.9936,-2.9941,-2.9891,-2.9887,-2.9906,-2.9878,-2.9924,-2.987,-2.988,-2.9881,-2.9889,-3.0023,-3.0056,-3.0148,-2.9975,-2.9977,-2.9978,0,-3.0117,-3.0109,-3.0152,-3.012,-3.0122,-3.0139,-3.013,-3.0134,-3.0115,-3.0096,-3.0089,-3.0048,-3.0067,-3.0013,-3.004,-3.0004,-3.0006,-2.9993,-2.9996,-2.9996,-2.9936,-3.0029,-3.0175,-3.019,-2.9996,-2.9994,-2.9993,0,-3.0226,-3.0226,-3.0253,-3.0246,-3.0209,-3.0223,-3.0208,-3.0185,-3.0185,-3.0178,-3.0177,-3.0173,-3.017,-3.0168,-3.0128,-3.0091,-3.0161,-3.0102,-3.0147,-3.0148,-3.0165,-3.0165,-3.0316,-3.0164,-3.0164,-3.0164,-3.0163,0,-3.0333,-3.0363,-3.0302,-3.0318,-3.035,-3.0299,-3.0332,-3.0311,-3.0293,-3.0305,-3.0251,-3.0264,-3.0209,-3.0217,-3.0185,-3.0214,-3.0213,-3.0199,-3.019,-3.0204,-3.0207,-3.0206,-3.0199,-3.0167,-3.0166,-3.0166,-3.0165,0,-3.0461,-3.0421,-3.0446,-3.0409,-3.0401,-3.0426,-3.0395,-3.0409,-3.0382,-3.0398,-3.0399,-3.0356,-3.0363,-3.0322,-3.032,-3.0299,-3.0344,-3.0324,-3.0351,-3.0345,-3.0393,-3.039,-3.055,-3.0569,-3.0404,-3.0406,-3.0407,0,-3.0532,-3.0554,-3.052,-3.0524,-3.0512,-3.052,-3.0519,-3.0471,-3.0473,-3.0454,-3.0472,-3.0474,-3.0473,-3.0486,-3.0456,-3.0455,-3.0436,-3.0492,-3.0435,-3.045,-3.0439,-3.0439,-3.0442,-3.0504,-3.0506,-3.0508,-3.0509,0,-3.0664,-3.0644,-3.0645,-3.0641,-3.0642,-3.0636,-3.0627,-3.0634,-3.0581,-3.0587,-3.0593,-3.0592,-3.0592,-3.0596,-3.0589,-3.0575,-3.0535,-3.0527,-3.0538,-3.0553,-3.0569,-3.0563,-3.0385,-3.0524,-3.0522,-3.0521,-3.052,-3.052,-3.0767,-3.0784,-3.0764,-3.0768,-3.0756,-3.0749,-3.0761,-3.0736,-3.074,-3.0736,-3.0707,-3.0719,-3.0702,-3.0689,-3.0679,-3.0689,-3.0662,-3.0677,-3.0681,-3.0686,-3.0696,-3.0566,-3.0687,-3.0687,-3.0687,-3.0686,-3.0686,0,-3.0898,-3.0882,-3.0886,-3.0875,-3.0879,-3.084,-3.0828,-3.0835,-3.0846,-3.0833,-3.0833,-3.0842,-3.0846,-3.0816,-3.0817,-3.083,-3.0812,-3.0832,-3.0832,-3.083,-3.0718,-3.071,-3.0847,-3.0847,-3.0847,-3.0847,-3.0847,-3.0847,-3.0967,-3.0994,-3.0972,-3.0994,-3.0978,-3.0989,-3.0987,-3.0981,-3.097,-3.0982,-3.0985,-3.0966,-3.0947,-3.0945,-3.0948,-3.0939,-3.0943,-3.097,-3.0956,-3.0853,-3.0837,-3.0822,-3.0814,-3.0971,-3.0971,-3.1066,-3.1067,-3.1068]},{"header":{"parameterUnit":"m.s-1","parameterCategory":1,"la1":30.2991,"la2":30.254,"lo1":-89.0895,"lo2":-89.0444,"dy":0.0017,"dx":0.0017,"nx":28,"ny":28,"refTime":"2025-08-31T21:00:00:Z","depth":0,"parameterNumber":3,"parameterNumberName":"V-component_of_WINDS"},"data":[0,0,0,0,0,0,0,0,0,0,0,0,0,0,0,0,0,0,0,0,0,0,0,0,0,0,0,0,0,0,0,0,0,0,0,0,0,0,0,0,0,0,0,0,0,0,0,0,0,0,0,0,0,0,0,0,0,0,1.3535,1.3535,0,1.3529,1.3529,1.3529,1.3559,1.356,1.3561,1.3562,1.3552,1.3551,1.3549,0,0,0,0,0,0,0,0,0,0,0,0,0,1.3568,1.3567,1.3535,1.3535,1.3535,1.3529,1.3529,1.3529,1.3559,1.356,1.3562,1.3563,1.3552,1.3551,1.3549,0,0,0,0,0,0,0,0,0,0,0,0,0,1.3557,1.3567,1.3535,1.3549,1.3551,1.3529,1.3529,1.3529,1.3559,1.356,1.3562,1.3563,1.3552,1.3551,1.3549,1.3512,0,0,1.3544,1.3543,0,0,0,0,0,0,0,0,1.3557,1.3555,1.3547,1.3548,1.355,1.3547,1.3537,1.3523,1.3559,1.3556,1.3562,1.3564,1.3549,1.3547,1.3543,1.3512,1.3511,1.3544,1.3543,1.3542,1.3542,0,0,0,0,0,0,0,1.3558,1.3556,1.3532,1.3547,1.3548,1.3555,1.3555,1.3534,1.3544,1.3556,1.3558,1.3557,1.3549,1.3545,1.3543,1.3511,1.3544,1.3543,1.3542,1.3541,1.3448,1.3446,0,0,0,0,0,0,1.3557,1.3556,1.3533,1.3532,1.3557,1.3553,1.3553,1.3546,1.3545,1.3546,1.3556,1.3559,1.3547,1.3545,1.3543,1.3498,1.3542,1.3541,1.354,1.3449,1.3447,1.3446,0,0,0,0,0,0,1.3558,1.3555,1.3533,1.3545,1.3543,1.3551,1.3543,1.3545,1.3541,1.3545,1.3547,1.355,1.3548,1.3545,1.352,1.3498,1.354,1.3538,1.3451,1.3449,1.3447,1.3409,0,0,0,0,0,0,1.3559,1.3555,1.3542,1.3544,1.3542,1.3511,1.3542,1.3544,1.3538,1.3541,1.3539,1.354,1.3549,1.3522,1.3518,1.3497,1.3537,1.3453,1.345,1.3447,1.3412,1.3406,1.34,0,0,0,0,0,1.356,1.3531,1.3541,1.3538,1.3526,1.351,1.3508,1.3519,1.3536,1.3522,1.3525,1.354,1.3502,1.3519,1.3515,1.3493,1.3454,1.3451,1.3447,1.3415,1.3407,1.34,0,0,0,0,0,0,1.3524,1.3531,1.3543,1.3514,1.3511,1.3515,1.3498,1.3511,1.3502,1.3505,1.3519,1.3518,1.3489,1.3489,1.3508,1.3456,1.3481,1.3476,1.3457,1.345,1.3444,1.3443,1.3536,0,0,0,0,0,1.3513,1.3501,1.3508,1.3481,1.348,1.3489,1.3482,1.3492,1.3488,1.3487,1.3488,1.3483,1.3469,1.346,1.3448,1.3413,1.3412,1.3396,1.339,1.3385,1.338,1.336,1.3352,1.3435,1.3435,1.3435,0,0,1.349,1.3492,1.3483,1.3474,1.3473,1.3458,1.3487,1.3471,1.3459,1.3484,1.3459,1.346,1.3455,1.3424,1.3411,1.3423,1.3357,1.3381,1.3377,1.3375,1.3355,1.3348,1.3341,1.3433,1.3433,1.3433,0,0,1.3439,1.3441,1.3419,1.3417,1.3416,1.3422,1.3417,1.3419,1.342,1.3397,1.3414,1.3401,1.3378,1.3373,1.3368,1.3316,1.3328,1.3312,1.328,1.326,1.3253,1.3247,1.3227,1.3219,1.3308,1.3308,1.3308,0,1.3409,1.3389,1.3405,1.3387,1.3382,1.3405,1.3382,1.3379,1.3373,1.3368,1.3383,1.3354,1.3353,1.332,1.3308,1.3303,1.3296,1.3311,1.3253,1.3248,1.3242,1.3223,1.3215,1.3305,1.3306,1.3306,1.3306,0,1.3352,1.3338,1.332,1.3314,1.3308,1.3287,1.3298,1.3289,1.3299,1.3304,1.3278,1.3278,1.3266,1.3259,1.3269,1.3228,1.3235,1.3251,1.3276,1.3232,1.3214,1.3206,1.3302,1.3303,1.3304,1.3304,0,0,1.3276,1.3281,1.3274,1.3272,1.3272,1.326,1.324,1.323,1.3221,1.3216,1.3198,1.3179,1.3194,1.3188,1.3197,1.318,1.3136,1.3198,1.3198,1.3184,1.3088,1.3074,1.3065,1.3146,1.3144,1.3143,1.3088,0,1.3225,1.3192,1.3206,1.3171,1.3157,1.3179,1.3162,1.3159,1.3163,1.315,1.3155,1.314,1.3162,1.3158,1.3142,1.3145,1.3116,1.3149,1.3126,1.3125,1.3124,1.3056,1.3041,1.2989,1.3081,1.308,1.3079,0,1.316,1.3154,1.3118,1.312,1.3115,1.3099,1.309,1.3078,1.3075,1.3079,1.3073,1.3086,1.3065,1.3091,1.3061,1.3083,1.3075,1.3075,1.3073,1.3069,1.3097,1.3047,1.2973,1.2963,1.3068,1.3069,1.307,0,1.3105,1.3088,1.3064,1.3062,1.3064,1.3052,1.3053,1.3051,1.3044,1.3036,1.3031,1.302,1.3014,1.3004,1.3013,1.3032,1.2981,1.3009,1.2981,1.2981,1.2967,1.2967,1.2887,1.2966,1.2966,1.2966,1.2967,0,1.3045,1.3021,1.304,1.3024,1.2998,1.3014,1.2987,1.299,1.2989,1.2973,1.2993,1.2977,1.2992,1.2977,1.2984,1.2957,1.2954,1.2955,1.2956,1.2952,1.2951,1.2944,1.2947,1.2964,1.2965,1.2965,1.2966,0,1.2978,1.299,1.2965,1.297,1.2971,1.2951,1.2955,1.294,1.2946,1.2926,1.2922,1.2931,1.2915,1.2924,1.2907,1.2912,1.2875,1.2883,1.2876,1.2877,1.2849,1.285,1.2758,1.2746,1.2836,1.2836,1.2835,0,1.2937,1.292,1.2924,1.2915,1.2915,1.2901,1.2894,1.291,1.2901,1.2897,1.2882,1.2868,1.2857,1.283,1.2834,1.2821,1.2827,1.2796,1.2824,1.282,1.2823,1.2823,1.282,1.2789,1.2788,1.2787,1.2786,0,1.2863,1.287,1.286,1.2851,1.2843,1.2836,1.2832,1.2824,1.2839,1.2828,1.2813,1.2805,1.2788,1.2773,1.2762,1.2761,1.2774,1.2778,1.277,1.2763,1.2759,1.2758,1.2857,1.2779,1.2779,1.278,1.278,1.2781,1.2806,1.2791,1.2791,1.2779,1.2777,1.2773,1.2759,1.2764,1.2752,1.274,1.275,1.2731,1.2728,1.2715,1.2712,1.2696,1.2708,1.2698,1.2694,1.2691,1.2686,1.2764,1.2694,1.2694,1.2695,1.2695,1.2695,0,1.273,1.2732,1.2721,1.2714,1.2704,1.2721,1.2717,1.2707,1.269,1.2687,1.2677,1.2658,1.2644,1.2647,1.2634,1.262,1.2626,1.2616,1.2615,1.2614,1.2677,1.2684,1.2611,1.2611,1.2611,1.2611,1.2611,1.2611,1.2689,1.2664,1.2671,1.2645,1.2647,1.2629,1.2625,1.262,1.2617,1.2596,1.2585,1.2588,1.2587,1.2574,1.2561,1.2562,1.2555,1.2541,1.2544,1.2602,1.261,1.2618,1.2624,1.254,1.254,1.2483,1.2482,1.2482]}]]